SCP
0 0 0 0 0 0 0 0 0 0 0 0 0 0 0 0 0 0 0 0 0 0 0 0 0 0 0 0 0 0 0 0
0 0 0 0 0 0 0 0 0 0 0 0 0 0 0 0 0 0 0 0 0 0 0 0 0 0 0 0 0 0 0 0
0 0 0 0 0 0 0 0 0 0 0 0 0 0 0 0 0 0 0 0 0 0 0 0 0 0 0 0 0 0 0 0
0 0 0 0 0 0 0 0 0 0 0 0 0 0 0 0 0 0 0 0 0 0 0 0 0 0 0 0 0 0 0 0
0 0 0 0 0 0 0 0 0 0 0 0 0 0 0 0 0 0 0 0 0 0 0 0 0 0 0 0 0 0 0 0
0 0 0 0 0 0 0 0 0 0 0 0 0 0 0 0 0 0 0 0 0 0 0 0 0 0 0 0 0 0 0 0
0 0 0 0 0 0 0 0 0 0 0 0 0 0 0 0 0 0 0 0 0 0 0 0 0 0 0 0 0 0 0 0
0 0 0 0 0 0 0 0 0 0 0 0 0 0 0 0 0 0 0 0 0 0 0 0 0 0 0 0 0 0 0 0
0 0 0 0 0 0 0 0 0 0 0 0 0 0 0 0 0 0 0 0 0 0 0 0 0 0 0 0 0 0 0 0
0 0 0 0 0 0 0 0 0 0 0 0 0 0 0 0 0 0 0 0 0 0 0 0 0 0 0 0 0 0 0 0
0 0 0 0 0 0 0 0 0 0 0 0 0 0 0 0 0 0 0 0 0 0 0 0 0 0 0 0 0 0 0 0
0 0 0 0 0 0 0 0 0 0 0 0 0 0 0 0 0 0 0 0 0 0 0 0 0 0 0 0 0 0 0 0
0 0 0 0 0 0 0 0 0 0 0 0 0 0 0 0 0 0 0 0 0 0 0 0 0 0 0 0 0 0 0 0
0 0 0 0 0 0 0 0 0 0 0 0 0 0 0 0 0 0 0 0 0 0 0 0 0 0 0 0 0 0 0 0
0 0 0 0 0 0 0 0 0 0 0 0 0 0 0 0 0 0 0 0 0 0 0 0 0 0 0 0 0 0 0 0
0 0 0 0 0 0 0 0 0 0 0 0 0 0 0 0 0 0 0 0 0 0 0 0 0 0 0 0 0 0 0 0
0 0 0 0 0 0 0 0 0 0 0 0 0 0 0 0 0 0 0 0 0 0 0 0 0 0 0 0 0 0 0 0
0 0 0 0 0 0 0 0 0 0 0 0 0 0 0 0 0 0 0 0 0 0 0 0 0 0 0 0 0 0 0 0
0 0 0 0 0 0 0 0 0 0 0 0 0 0 0 0 0 0 0 0 0 0 0 0 0 0 0 0 0 0 0 0
0 0 0 0 0 0 0 0 0 0 0 0 0 0 0 0 0 0 0 0 0 0 0 0 0 0 0 0 0 0 0 0
Wind_Speed_500mb
35 42 44 43 42 39 37 35 33 29 25 22 18 14 10 8 8 10 14 18 21 24 28 30 33 38 42 47 50 54 57 61
35 39 39 38 36 33 31 29 27 24 21 18 15 13 10 9 10 12 16 19 24 28 33 39 43 47 53 56 59 61 63 64
38 37 36 34 32 29 27 24 23 21 19 15 13 12 12 12 15 18 22 28 35 40 45 49 52 55 58 61 63 66 70 71
36 32 33 33 31 28 26 22 21 18 14 12 9 10 13 18 23 29 33 38 43 48 51 54 56 59 62 66 70 72 74 76
35 36 36 32 30 28 24 20 17 13 10 8 9 13 18 24 30 35 39 44 49 53 56 59 60 64 69 73 75 78 81 82
41 39 36 33 30 26 21 17 12 8 7 10 14 18 23 28 34 40 44 47 49 52 54 58 62 65 71 76 80 83 85 85
44 41 37 35 30 24 19 13 7 4 8 13 19 26 33 40 46 50 51 53 56 59 64 68 69 70 75 79 87 88 90 93
49 45 40 35 28 21 15 8 1 8 15 22 29 37 43 49 51 54 57 60 63 66 69 74 76 78 82 85 90 95 96 96
54 48 41 34 26 19 11 3 7 14 22 30 38 45 49 51 55 59 64 68 72 76 79 84 85 86 89 92 96 98 99 97
53 47 40 32 24 15 7 6 12 20 30 40 46 49 52 56 60 63 70 74 78 81 86 88 90 89 91 94 98 100 102 99
54 46 38 29 19 12 7 13 21 30 38 43 47 50 54 59 64 68 72 78 83 87 88 91 96 93 91 89 92 96 96 96
50 44 34 24 15 11 15 21 30 36 39 40 45 50 54 60 64 70 76 79 84 89 91 93 93 94 91 88 88 87 89 88
47 37 28 20 15 18 25 29 32 34 37 40 44 50 57 65 69 73 78 83 86 88 91 92 93 93 90 85 78 75 72 70
40 31 24 20 20 25 28 29 31 34 38 43 50 57 63 71 77 81 83 86 89 92 93 95 96 93 90 84 76 67 54 53
33 27 23 21 24 25 27 29 33 38 45 53 61 68 73 78 82 87 89 90 91 94 97 99 98 94 83 76 70 59 44 42
30 25 22 21 22 23 25 30 37 45 53 62 70 77 82 84 87 90 91 89 92 94 92 94 98 89 69 65 63 54 39 30
27 25 21 19 20 24 30 37 45 54 63 70 75 79 85 91 97 93 94 93 91 91 86 92 82 79 64 67 54 40 35 24
24 21 22 22 24 28 35 43 51 60 67 71 76 80 84 86 87 96 98 92 93 88 84 78 76 63 59 53 48 34 30 30
26 26 25 25 28 35 41 48 55 60 64 69 72 74 77 81 85 88 94 104 108 94 83 73 58 52 52 42 39 38 36 36
29 30 31 33 36 41 45 50 54 58 61 63 66 70 75 79 83 85 87 90 95 95 85 67 49 43 42 38 41 46 43 41
Wind_Direction_500mb
134 129 124 120 117 117 116 115 113 112 111 107 101 96 86 59 25 357 342 335 332 329 328 326 324 322 319 316 314 310 308 306
144 137 132 129 125 122 121 119 117 114 109 106 96 79 57 31 11 353 343 339 338 337 333 328 325 322 318 315 313 311 310 309
150 145 140 137 133 131 125 126 119 111 103 92 78 58 34 17 3 354 343 336 331 328 326 324 322 321 320 317 316 315 313 312
152 148 147 143 139 135 130 125 118 110 100 85 59 30 5 352 344 337 333 330 329 328 326 324 323 322 321 319 318 316 314 312
159 158 157 152 146 141 137 130 122 110 89 56 20 1 350 343 337 333 329 326 324 322 321 320 319 319 317 315 313 312 312 311
168 165 162 156 150 146 143 137 126 100 49 11 353 346 339 332 327 324 320 317 316 315 314 315 315 316 315 314 312 312 311 310
172 169 164 160 157 154 149 139 122 53 355 347 338 333 330 326 323 321 320 319 318 318 318 318 317 316 315 314 313 312 311 311
175 170 167 165 163 160 155 144 74 344 337 334 331 328 325 323 322 321 320 319 318 318 317 315 316 316 315 314 311 310 310 310
175 172 171 168 166 166 166 195 319 327 328 325 323 322 321 320 321 320 319 319 319 317 316 314 315 315 313 312 310 309 309 309
173 173 171 172 173 181 209 285 312 319 322 321 320 319 320 320 321 321 319 318 317 317 315 314 313 314 315 314 312 310 309 309
174 173 172 172 182 206 255 295 307 315 317 318 318 320 321 321 321 320 319 318 316 315 313 312 311 311 312 312 312 311 310 308
171 173 175 183 206 247 278 293 307 313 316 317 318 319 321 320 321 320 318 316 316 315 314 313 310 309 310 312 314 313 311 309
175 177 183 202 228 259 278 295 304 310 314 317 320 321 320 319 319 317 315 314 313 313 314 316 315 314 312 312 313 311 308 302
178 184 198 220 249 272 288 300 308 313 317 318 318 318 316 314 314 312 310 309 308 308 310 312 314 314 314 313 314 315 307 303
183 197 218 244 266 281 294 304 312 315 316 315 315 315 313 311 310 309 307 307 306 306 307 308 308 311 315 316 315 316 306 307
198 213 232 252 268 281 295 305 308 312 314 314 314 313 312 310 308 306 304 305 304 302 303 302 304 307 308 306 307 305 301 299
206 225 239 251 271 289 299 304 309 313 313 312 311 311 311 311 311 308 306 305 302 301 301 300 299 301 297 296 296 289 285 267
221 235 246 257 271 284 295 302 307 308 309 311 313 314 313 311 309 311 313 309 306 305 305 303 302 296 289 287 287 266 264 248
230 238 250 264 273 283 293 301 304 307 310 314 313 312 312 312 312 311 310 310 309 310 310 306 303 292 283 277 271 255 243 241
237 245 255 264 275 287 295 300 304 307 311 312 313 314 315 315 314 314 313 310 308 308 309 313 306 291 279 271 242 249 245 243
Wind_Speed_850mb
35 42 44 43 42 39 37 35 33 29 25 22 18 14 10 8 8 10 14 18 21 24 28 30 33 38 42 47 50 54 57 61
35 39 39 38 36 33 31 29 27 24 21 18 15 13 10 9 10 12 16 19 24 28 33 39 43 47 53 56 59 61 63 64
38 37 36 34 32 29 27 24 23 21 19 15 13 12 12 12 15 18 22 28 35 40 45 49 52 55 58 61 63 66 70 71
36 32 33 33 31 28 26 22 21 18 14 12 9 10 13 18 23 29 33 38 43 48 51 54 56 59 62 66 70 72 74 76
35 36 36 32 30 28 24 20 17 13 10 8 9 13 18 24 30 35 39 44 49 53 56 59 60 64 69 73 75 78 81 82
41 39 36 33 30 26 21 17 12 8 7 10 14 18 23 28 34 40 44 47 49 52 54 58 62 65 71 76 80 83 85 85
44 41 37 35 30 24 19 13 7 4 8 13 19 26 33 40 46 50 51 53 56 59 64 68 69 70 75 79 87 88 90 93
49 45 40 35 28 21 15 8 1 8 15 22 29 37 43 49 51 54 57 60 63 66 69 74 76 78 82 85 90 95 96 96
54 48 41 34 26 19 11 3 7 14 22 30 38 45 49 51 55 59 64 68 72 76 79 84 85 86 89 92 96 98 99 97
53 47 40 32 24 15 7 6 12 20 30 40 46 49 52 56 60 63 70 74 78 81 86 88 90 89 91 94 98 100 102 99
54 46 38 29 19 12 7 13 21 30 38 43 47 50 54 59 64 68 72 78 83 87 88 91 96 93 91 89 92 96 96 96
50 44 34 24 15 11 15 21 30 36 39 40 45 50 54 60 64 70 76 79 84 89 91 93 93 94 91 88 88 87 89 88
47 37 28 20 15 18 25 29 32 34 37 40 44 50 57 65 69 73 78 83 86 88 91 92 93 93 90 85 78 75 72 70
40 31 24 20 20 25 28 29 31 34 38 43 50 57 63 71 77 81 83 86 89 92 93 95 96 93 90 84 76 67 54 53
33 27 23 21 24 25 27 29 33 38 45 53 61 68 73 78 82 87 89 90 91 94 97 99 98 94 83 76 70 59 44 42
30 25 22 21 22 23 25 30 37 45 53 62 70 77 82 84 87 90 91 89 92 94 92 94 98 89 69 65 63 54 39 30
27 25 21 19 20 24 30 37 45 54 63 70 75 79 85 91 97 93 94 93 91 91 86 92 82 79 64 67 54 40 35 24
24 21 22 22 24 28 35 43 51 60 67 71 76 80 84 86 87 96 98 92 93 88 84 78 76 63 59 53 48 34 30 30
26 26 25 25 28 35 41 48 55 60 64 69 72 74 77 81 85 88 94 104 108 94 83 73 58 52 52 42 39 38 36 36
29 30 31 33 36 41 45 50 54 58 61 63 66 70 75 79 83 85 87 90 95 95 85 67 49 43 42 38 41 46 43 41
Wind_Direction_850mb
134 129 124 120 117 117 116 115 113 112 111 107 101 96 86 59 25 357 342 335 332 329 328 326 324 322 319 316 314 310 308 306
144 137 132 129 125 122 121 119 117 114 109 106 96 79 57 31 11 353 343 339 338 337 333 328 325 322 318 315 313 311 310 309
150 145 140 137 133 131 125 126 119 111 103 92 78 58 34 17 3 354 343 336 331 328 326 324 322 321 320 317 316 315 313 312
152 148 147 143 139 135 130 125 118 110 100 85 59 30 5 352 344 337 333 330 329 328 326 324 323 322 321 319 318 316 314 312
159 158 157 152 146 141 137 130 122 110 89 56 20 1 350 343 337 333 329 326 324 322 321 320 319 319 317 315 313 312 312 311
168 165 162 156 150 146 143 137 126 100 49 11 353 346 339 332 327 324 320 317 316 315 314 315 315 316 315 314 312 312 311 310
172 169 164 160 157 154 149 139 122 53 355 347 338 333 330 326 323 321 320 319 318 318 318 318 317 316 315 314 313 312 311 311
175 170 167 165 163 160 155 144 74 344 337 334 331 328 325 323 322 321 320 319 318 318 317 315 316 316 315 314 311 310 310 310
175 172 171 168 166 166 166 195 319 327 328 325 323 322 321 320 321 320 319 319 319 317 316 314 315 315 313 312 310 309 309 309
173 173 171 172 173 181 209 285 312 319 322 321 320 319 320 320 321 321 319 318 317 317 315 314 313 314 315 314 312 310 309 309
174 173 172 172 182 206 255 295 307 315 317 318 318 320 321 321 321 320 319 318 316 315 313 312 311 311 312 312 312 311 310 308
171 173 175 183 206 247 278 293 307 313 316 317 318 319 321 320 321 320 318 316 316 315 314 313 310 309 310 312 314 313 311 309
175 177 183 202 228 259 278 295 304 310 314 317 320 321 320 319 319 317 315 314 313 313 314 316 315 314 312 312 313 311 308 302
178 184 198 220 249 272 288 300 308 313 317 318 318 318 316 314 314 312 310 309 308 308 310 312 314 314 314 313 314 315 307 303
183 197 218 244 266 281 294 304 312 315 316 315 315 315 313 311 310 309 307 307 306 306 307 308 308 311 315 316 315 316 306 307
198 213 232 252 268 281 295 305 308 312 314 314 314 313 312 310 308 306 304 305 304 302 303 302 304 307 308 306 307 305 301 299
206 225 239 251 271 289 299 304 309 313 313 312 311 311 311 311 311 308 306 305 302 301 301 300 299 301 297 296 296 289 285 267
221 235 246 257 271 284 295 302 307 308 309 311 313 314 313 311 309 311 313 309 306 305 305 303 302 296 289 287 287 266 264 248
230 238 250 264 273 283 293 301 304 307 310 314 313 312 312 312 312 311 310 310 309 310 310 306 303 292 283 277 271 255 243 241
237 245 255 264 275 287 295 300 304 307 311 312 313 314 315 315 314 314 313 310 308 308 309 313 306 291 279 271 242 249 245 243